STARLINK-4195, 52870

Orbit data source: Space-Track

STARLINK-4195, 52870 is a payload satellite owned by SpaceX/Seattle (US) in LEO that was launched on Fri, 17 Jun 2022 UTC via an FALCON 9 launch vehicle from the Air Force Eastern Test Range (AFETR). Payload-class satellites include a variety of spacecraft equipped with specific instruments for various scientific and technological missions. These include communications satellites like Starlink; space stations such as the ISS; scientific satellites like the Hubble; Earth observation satellites from companies like Planet Labs, Umbra, and HawkEye 360; GPS; miniature CubeSats for education and research; and military/defense satellites.

Loading next visibility...
Identifier
52870, 2022-062AS
Orbit
LEO
Country
Flag of USUS
Related business
Manufacturer
SpaceX/Seattle
Mission
Operational Commercial Communications
Bus & Motor
STARLINK, Unknown motor
Mass
297 kg wet, ~275 kg dry
Launch date (UTC)
2022-06-17 (3 years ago)
Launch vehicle
FALCON 9
Launch site
Air Force Eastern Test Range (AFETR)
Object type
Payload
Rocket body
Debris
Shape & HBR
Box + 1 Pan, 10.1 m
Radar Cross Section
13.562 m², Large (>1 m²)

Expand to show TLE details & history
Last TLE update: 18 hours ago

TLE from 18 hours ago
0 STARLINK-4195
1 52870U 22062AS  25349.32805983  .00000182  00000-0  29558-4 0  9999
2 52870  53.2192  42.8360 0001364  96.8081 263.3067 15.08835969193199
Epoch: 2025-12-15T07:52Z
TLE epoch observation values (Epoch: 2025-12-15T07:52:24.369Z)
Latitude
0.00004°
Longitude
-159.49372°
Altitude
540.763 km
Speed
7.593 km/s
True Right ascension
02h 51m 20s
True Declination
0° 00' 00"
Sunlit
Object was in full shadow at epoch
Visualization orbit readout
Latitude
Unknown
Longitude
Unknown
Altitude
Unknown
Speed
Unknown
Apparent Right ascension
Unknown
Apparent Declination
Unknown
Sunlit
N/A
Visualization observer readout
Local Sidereal Time
00:25:04
Azimuth
Unknown
Elevation
Unknown
Doppler factor
Unknown
Orbital elements
Apogee altitude
540.944 km
Perigee altitude
539.057 km
Semi-major axis
6,918.137 km
Eccentricity
0.00014
Inclination
53.2192°
RAAN
42.836°
Arg. of periapsis
96.8081°
True anomaly
263.29118°
Mean anomaly
263.3067°
Eccentric anomaly
263.29894°
Mean motion
3.77189 °/min
Orbital period
95.44 mins
BSTAR
0.000029558
Loading maneuver chart data...
Computing Atmospheric mass density...
Loading historical data...
Loading historical data...
Loading historical data...
Loading historical data...
Loading historical data...
Loading historical data...
Loading historical data...

Documentation

Showing up to 5 results
|